This is the latest recevied weather packets stored in our database for station/object SR2GKG-13. If no packets are shown the sender has not sent any weather packets the latest 10 day(s).
| Time | Temp. | Humidity | Pressure | Rain* | Wind** | Luminosity | Snow |
|---|---|---|---|---|---|---|---|
| 1788080562 | 23.89° C | 67% | 1001.7 hPa | - | - | - | - |
| 1788079662 | 22.22° C | 73% | 1001.8 hPa | - | - | - | - |
| 1788078761 | 21.67° C | 67% | 1001.7 hPa | - | - | - | - |
| 1788077861 | 22.22° C | 73% | 1001.8 hPa | - | - | - | - |
| 1788076961 | 21.67° C | 72% | 1001.8 hPa | - | - | - | - |
| 1788076061 | 20° C | 78% | 1001.8 hPa | - | - | - | - |
| 1788075161 | 20.56° C | 81% | 1001.7 hPa | - | - | - | - |
| 1788074261 | 18.89° C | 86% | 1001.8 hPa | - | - | - | - |
| 1788073361 | 18.33° C | 86% | 1001.8 hPa | - | - | - | - |
| 1788072461 | 18.89° C | 82% | 1001.8 hPa | - | - | - | - |
| 1788071561 | 19.44° C | 79% | 1001.9 hPa | - | - | - | - |
| 1788070661 | 18.33° C | 89% | 1001.9 hPa | - | - | - | - |
| 1788069761 | 17.22° C | 87% | 1001.9 hPa | - | - | - | - |
| 1788068860 | 17.22° C | 89% | 1002 hPa | - | - | - | - |
| 1788067960 | 16.11° C | 94% | 1002 hPa | - | - | - | - |
| 1788067060 | 16.11° C | 94% | 1002 hPa | - | - | - | - |
| 1788066160 | 16.11° C | 92% | 1002.1 hPa | - | - | - | - |
| 1788065260 | 15.56° C | 94% | 1002.1 hPa | - | - | - | - |
| 1788064360 | 15.56° C | 95% | 1002 hPa | - | - | - | - |
| 1788063460 | 15.56° C | 96% | 1001.9 hPa | - | - | - | - |
| 1788062560 | 15° C | 96% | 1001.9 hPa | - | - | - | - |
| 1788061660 | 15° C | 95% | 1002.1 hPa | - | - | - | - |
* Rain since midnight (hover to see other rain measurements)
** Current wind speed in m/s (hover to see current wind gust speed)